Simultaneous Nadir Overpasses (SNOs) Predictions

Prediction of SNOs between GOES-17 and FY3D Satellite Orbit:

Table of predicted SNOs for the next 14.0 days since TLE Epoch: 11/23/2024
Index Date Time (GOES-17) GOES-17 Lat,Lon FY3D Lat,Lon Distance(km) Time Diff (sec)
1 11/23/2024 21:33:41 0.00,-104.68 0.65,-101.87 319.95 80
2 11/25/2024 09:55:32 -0.00,-104.73 0.56,-107.11 272.73 80
3 11/26/2024 09:34:11 -0.00,-104.73 -0.50,-102.58 244.87 80
4 11/27/2024 21:56:10 0.00,-104.69 -0.69,-107.86 361.22 80
5 11/28/2024 21:40:07 -0.00,-104.69 0.31,-103.32 156.78 80
6 11/30/2024 10:01:59 0.00,-104.75 0.88,-108.56 435.20 80
7 12/01/2024 09:40:36 0.01,-104.75 -0.14,-104.02 82.32 80
8 12/03/2024 21:43:53 -0.02,-104.69 -0.01,-104.76 7.46 80
9 12/06/2024 09:49:41 0.03,-104.75 0.21,-105.45 81.13 80
